Weather reports worldwide

Advertisment
Catania/Fontanarossa, Italy (16460): temperature & dewpoint: 16.02.2020 08:00:00 - 22.02.2020 08:00:00 (CET)Catania/Fontanarossa, Italy (16460): wind speed: 16.02.2020 08:00:00 - 22.02.2020 08:00:00 (CET)Catania/Fontanarossa, Italy (16460): wind direction: 16.02.2020 08:00:00 - 22.02.2020 08:00:00 (CET)Catania/Fontanarossa, Italy (16460): reduced air pressure: 16.02.2020 08:00:00 - 22.02.2020 08:00:00 (CET)Catania/Fontanarossa, Italy (16460): visibility: 16.02.2020 08:00:00 - 22.02.2020 08:00:00 (CET)Catania/Fontanarossa, Italy (16460): precipitation: 16.02.2020 08:00:00 - 22.02.2020 08:00:00 (CET)
Date & Time tt [°C] td [°C] ff [km/h] ff [kn] dd ppp [hPa] vv [km] rr [mm]
22.02.2020 08:00:00 3,0 1,0 11 6 WSW - 10 -
22.02.2020 07:00:00 1,2 -0,2 9 5 WSW 1026,7 10 -
22.02.2020 06:00:00 1,0 0,0 11 6 WSW - 10 -
22.02.2020 05:00:00 2,0 1,0 9 5 W - 10 -
22.02.2020 04:00:00 2,5 1,4 8 4 WSW 1024,8 10 0,0
22.02.2020 03:00:00 3,0 2,0 8 4 W - 10 -
22.02.2020 02:00:00 3,0 2,0 9 5 SW - 10 -
22.02.2020 01:00:00 4,0 2,4 5 3 W 1025,5 10 -
22.02.2020 00:00:00 5,0 3,0 8 4 WSW - 10 -
21.02.2020 23:00:00 - - - - - - - -
21.02.2020 22:00:00 - - - - - - - -
21.02.2020 21:00:00 - - - - - - - -
21.02.2020 20:00:00 11,0 6,0 5 3 SSW - 10 -
21.02.2020 19:00:00 12,0 6,4 4 2 SSE 1024,4 10 -
21.02.2020 18:00:00 14,0 6,0 11 6 E - 10 -
21.02.2020 17:00:00 15,0 5,0 15 8 E - 10 -
21.02.2020 16:00:00 15,7 5,1 18 10 E 1023,7 10 0,0
21.02.2020 15:00:00 16,0 3,0 13 7 ESE - 10 -
21.02.2020 14:00:00 16,0 4,0 15 8 E - 10 -
21.02.2020 13:00:00 16,1 3,4 16 9 E 1024,3 10 -
21.02.2020 12:00:00 17,0 2,0 8 4 - - 10 -
21.02.2020 11:00:00 15,0 3,0 8 4 - - 10 -
21.02.2020 10:00:00 13,4 3,3 9 5 SW 1025,3 10 0,0
21.02.2020 09:00:00 11,0 4,0 11 6 W - 10 -
21.02.2020 08:00:00 8,0 4,0 11 6 W - 10 -
21.02.2020 07:00:00 4,4 1,5 13 7 W 1023,9 10 -
21.02.2020 06:00:00 5,0 1,0 9 5 WSW - 10 -
21.02.2020 05:00:00 2,0 0,0 11 6 W - 10 -
21.02.2020 04:00:00 3,4 1,5 11 6 WSW 1023,6 10 0,0
21.02.2020 03:00:00 3,0 1,0 9 5 W - 10 -
21.02.2020 02:00:00 5,0 1,0 8 4 SW - 10 -
21.02.2020 01:00:00 6,5 1,5 5 3 W 1023,7 10 -
21.02.2020 00:00:00 10,0 2,0 8 4 ENE - 10 -
20.02.2020 23:00:00 9,0 3,0 4 2 - - 10 -
20.02.2020 22:00:00 10,9 1,8 15 8 WSW 1023,0 10 0,0
20.02.2020 21:00:00 13,0 3,0 15 8 SW - 10 -
20.02.2020 20:00:00 - - - - - - - -
20.02.2020 19:00:00 14,0 4,0 11 6 ESE - 10 -
20.02.2020 18:00:00 16,0 2,0 13 7 W - 10 -
20.02.2020 17:00:00 17,0 2,0 22 12 W - 10 -
20.02.2020 16:00:00 17,2 6,4 18 10 SE 1019,6 10 0,0
20.02.2020 15:00:00 - - - - - - - -
20.02.2020 14:00:00 18,0 5,0 16 9 SE - 10 -
20.02.2020 13:00:00 17,5 4,9 16 9 E 1019,9 10 -
20.02.2020 12:00:00 18,0 5,0 18 10 ESE - 10 -
20.02.2020 11:00:00 17,0 5,0 9 5 ENE - 10 -
20.02.2020 10:00:00 16,3 5,7 2 1 - 1020,3 10 0,0
20.02.2020 09:00:00 13,0 6,0 5 3 S - 10 -
20.02.2020 08:00:00 9,0 5,0 8 4 WSW - 10 -
20.02.2020 07:00:00 8,5 3,7 4 2 - 1019,1 10 -
20.02.2020 06:00:00 9,0 5,0 11 6 NNE - 10 -
20.02.2020 05:00:00 10,0 4,0 8 4 - - 10 -
20.02.2020 04:00:00 9,5 4,6 11 6 SSW 1018,2 10 0,0
20.02.2020 03:00:00 9,0 5,0 18 10 W - 10 -
20.02.2020 02:00:00 9,0 5,0 15 8 WNW - 10 -
20.02.2020 01:00:00 8,4 4,6 5 3 - 1019,0 10 -
20.02.2020 00:00:00 7,0 6,0 11 6 W - 10 -
19.02.2020 23:00:00 8,0 7,0 15 8 WSW - 10 -
19.02.2020 22:00:00 8,2 7,1 13 7 W 1019,8 10 0,0
19.02.2020 21:00:00 11,0 9,0 2 1 - - 10 -
19.02.2020 20:00:00 12,0 10,0 4 2 - - 10 -
19.02.2020 19:00:00 12,6 10,2 4 2 - 1020,0 10 -
19.02.2020 18:00:00 14,0 11,0 9 5 SSE - 10 -
19.02.2020 17:00:00 15,0 10,0 13 7 E - 10 -
19.02.2020 16:00:00 15,8 10,9 21 11 E 1019,7 10 0,0
19.02.2020 15:00:00 17,0 11,0 16 9 E - 10 -
19.02.2020 14:00:00 17,0 8,0 18 10 SE - 10 -
19.02.2020 13:00:00 17,6 7,8 15 8 SW 1021,4 10 -
19.02.2020 12:00:00 17,0 7,0 9 5 WSW - 10 -
19.02.2020 11:00:00 15,0 9,0 11 6 W - 10 -
19.02.2020 10:00:00 14,1 8,2 13 7 W 1022,9 10 0,0
19.02.2020 09:00:00 9,0 6,0 15 8 WSW - 10 -
19.02.2020 08:00:00 4,0 3,0 13 7 WSW - 10 -
19.02.2020 07:00:00 2,5 1,8 9 5 WSW 1022,4 7 -
19.02.2020 06:00:00 3,0 2,0 11 6 WSW - 10 -
19.02.2020 05:00:00 3,0 3,0 9 5 WSW - 10 -
19.02.2020 04:00:00 3,0 2,3 8 4 WSW 1022,1 10 0,0
19.02.2020 03:00:00 4,0 3,0 9 5 WSW - 10 -
19.02.2020 02:00:00 4,0 3,0 9 5 WSW - 10 -
19.02.2020 01:00:00 4,5 3,4 9 5 WSW 1022,8 10 -
19.02.2020 00:00:00 6,0 4,0 9 5 SW - 10 -
18.02.2020 23:00:00 8,0 6,0 9 5 WSW - 10 -
18.02.2020 22:00:00 7,9 6,2 9 5 WSW 1023,2 10 0,0
18.02.2020 21:00:00 8,0 6,0 9 5 W - 10 -
18.02.2020 20:00:00 11,0 8,0 2 1 - - 10 -
18.02.2020 19:00:00 12,8 9,4 5 3 E 1022,6 10 -
18.02.2020 18:00:00 14,0 10,0 15 8 ENE - 10 -
18.02.2020 17:00:00 15,0 9,0 13 7 ENE - 10 -
18.02.2020 16:00:00 15,9 8,6 15 8 E 1021,9 10 0,0
18.02.2020 15:00:00 16,0 5,0 13 7 E - 10 -
18.02.2020 14:00:00 17,0 6,0 11 6 E - 10 -
18.02.2020 13:00:00 16,3 5,8 13 7 ESE 1023,3 10 -
18.02.2020 12:00:00 16,0 4,0 13 7 E - 10 -
18.02.2020 11:00:00 16,0 5,0 5 3 SW - 10 -
18.02.2020 10:00:00 13,5 6,3 8 4 SW 1024,4 10 0,0
18.02.2020 09:00:00 7,0 5,0 8 4 WSW - 10 -
18.02.2020 08:00:00 3,0 3,0 8 4 WSW - 10 -
18.02.2020 07:00:00 1,8 0,9 8 4 WSW 1023,7 7 -
18.02.2020 06:00:00 2,0 1,0 9 5 WSW - 10 -
18.02.2020 05:00:00 3,0 2,0 8 4 W - 10 -
18.02.2020 04:00:00 4,7 3,9 5 3 NW 1023,8 10 0,0
18.02.2020 03:00:00 5,0 4,0 13 7 SW - 10 -
18.02.2020 02:00:00 4,0 3,0 9 5 SW - 10 -
18.02.2020 01:00:00 4,0 2,8 9 5 WSW 1025,3 10 -
18.02.2020 00:00:00 6,0 4,0 8 4 SW - 10 -
17.02.2020 23:00:00 6,0 4,0 4 2 W - 10 -
17.02.2020 22:00:00 7,1 4,9 8 4 WSW 1026,2 10 0,0
17.02.2020 21:00:00 11,0 7,0 4 2 - - 10 -
17.02.2020 20:00:00 12,0 8,0 5 3 NE - 10 -
17.02.2020 19:00:00 12,2 8,0 11 6 ENE 1026,4 10 -
17.02.2020 18:00:00 13,0 8,0 15 8 ENE - 10 -
17.02.2020 17:00:00 15,0 7,0 13 7 E - 10 -
17.02.2020 16:00:00 15,4 6,3 11 6 ESE 1025,9 10 0,0
17.02.2020 15:00:00 16,0 7,0 13 7 E - 10 -
17.02.2020 14:00:00 16,0 5,0 15 8 E - 10 -
17.02.2020 13:00:00 16,6 6,6 18 10 E 1027,9 10 -
17.02.2020 12:00:00 17,0 5,0 5 3 - - 10 -
17.02.2020 11:00:00 16,0 8,0 13 7 WSW - 10 -
17.02.2020 10:00:00 13,7 6,7 11 6 SW 1029,3 10 0,0
17.02.2020 09:00:00 8,0 6,0 11 6 WSW - 10 -
17.02.2020 08:00:00 5,0 4,0 8 4 WSW - 10 -
17.02.2020 07:00:00 3,0 2,3 8 4 WSW 1029,6 10 -
17.02.2020 06:00:00 3,0 2,0 9 5 WSW - 10 -
17.02.2020 05:00:00 3,0 2,0 8 4 WSW - 10 -
17.02.2020 04:00:00 4,0 3,3 5 3 SW 1029,2 10 0,0
17.02.2020 03:00:00 4,0 3,0 9 5 WSW - 10 -
17.02.2020 02:00:00 5,0 4,0 5 3 W - 10 -
17.02.2020 01:00:00 5,9 4,8 5 3 WSW 1030,2 10 -
17.02.2020 00:00:00 7,0 5,0 8 4 SW - 10 -
16.02.2020 23:00:00 8,0 5,0 4 2 - - 10 -
16.02.2020 22:00:00 9,4 6,5 4 2 - 1030,4 10 0,0
16.02.2020 21:00:00 10,0 8,0 2 1 - - 10 -
16.02.2020 20:00:00 12,0 9,0 0 0 N - 10 -
16.02.2020 19:00:00 11,1 7,0 4 2 SE 1029,6 10 -
16.02.2020 18:00:00 13,0 8,0 8 4 ESE - 10 -
16.02.2020 17:00:00 15,0 8,0 13 7 E - 10 -
16.02.2020 16:00:00 15,0 8,3 16 9 E 1028,8 10 0,0
16.02.2020 15:00:00 15,0 8,0 16 9 ENE - 10 -
16.02.2020 14:00:00 16,0 8,0 16 9 E - 10 -
16.02.2020 13:00:00 16,6 7,4 15 8 SE 1029,0 10 -
16.02.2020 12:00:00 17,0 7,0 5 3 - - 10 -
16.02.2020 11:00:00 15,0 5,0 8 4 SW - 10 -
16.02.2020 10:00:00 12,9 5,1 13 7 SW 1030,5 10 0,0
16.02.2020 09:00:00 8,0 5,0 8 4 WSW - 10 -
16.02.2020 08:00:00 5,0 3,0 8 4 WSW - 10 -

tt = temperature
td = dewpoint
ff = wind speed
dd = wind direction
ppp = reduced air pressure
vv = visibility
rr = precipitation

Next stations